Find Starlink 1221

NORAD ID: 45227 Int'l Des: 2020-012 Owner: SPXS Country: US Constellation: starlink operational
LEOCIRCULAR

实时位置

正在加载3D地球...

关于 Starlink 1221

正在加载描述...

即将过境

Passes for default location (London). Set your location on the main map for personalized predictions.

高度历史

Loading altitude history...

两行轨道根数

1 45227U 20012BB 26125.07124638 .00016849 00000-0 37418-3 0 9996
2 45227 53.0659 2.0317 0003125 151.9216 208.1959 15.43838399345413
Epoch: May 5, 2026 • Age: 27 hours

当前状态

高度 437.5 km
速度 7.65 km/s
星下点 31.46°N, 95.48°E
发射日期 Feb 17, 2020
运行时间 6.2 years
类型 internet

技术详情

分类 Payload
质量 260.00 kg
干质量 248.00 kg
总质量 260.00 kg
长度 0.20 m
直径 2.80 m
跨度 9.00 m
形状 Box + pan
制造商 SPXS
平台类型 Starlink
阶段状态 In Orbit
所有者/国家 SPXS/US

Most Searched